Temperature
18 18 18 18 19 19 19 19 18 18 19 19 19 19 18 18 18 18 18 18 17 17 17 17 17 17 17 17 16 16 16 16 16 16 15 15 15 15
18 18 18 18 18 18 18 18 18 18 18 18 18 18 18 18 18 18 17 17 17 17 17 17 17 17 16 16 16 16 16 16 15 15 15 15 15 15
18 18 18 18 18 18 18 18 18 18 18 18 18 18 18 18 17 17 17 17 17 17 17 17 17 16 16 16 16 16 15 15 15 15 15 15 15 15
18 18 18 18 18 18 18 18 18 18 18 17 17 17 17 17 17 17 17 17 16 16 16 16 16 16 16 16 15 15 15 15 15 15 15 15 15 15
18 18 18 17 17 17 17 17 17 17 17 17 17 17 17 17 17 17 16 16 16 16 16 16 16 16 16 15 15 15 15 15 15 15 14 14 14 14
17 17 17 17 17 17 17 17 17 17 17 17 17 17 17 17 16 16 16 16 16 16 15 15 15 15 15 15 15 15 15 15 14 14 14 14 14 14
17 17 17 17 17 17 16 17 17 16 16 16 16 16 16 16 16 16 16 16 16 15 15 15 15 15 15 15 15 15 14 14 14 14 14 14 13 13
17 17 17 17 17 17 16 16 16 16 16 16 16 16 15 15 15 15 15 15 15 15 15 15 15 15 15 15 14 14 14 14 14 13 13 13 13 13
17 17 17 16 17 16 16 16 16 16 16 15 15 15 15 15 15 15 15 15 15 15 14 14 14 14 14 14 14 14 14 14 13 13 13 13 13 13
16 16 16 16 16 16 16 16 16 16 15 15 15 15 15 15 15 15 14 14 14 14 14 14 14 14 14 14 13 13 13 13 13 13 13 13 13 12
16 16 16 16 16 16 16 15 15 15 15 15 15 15 15 15 15 14 14 14 13 14 14 14 14 14 14 13 13 13 13 13 13 13 13 12 12 12
16 16 16 16 16 15 15 15 15 15 15 15 15 15 15 14 14 14 14 14 13 13 13 13 13 13 13 13 13 13 13 13 13 12 12 12 12 12
15 15 15 15 15 15 15 15 15 15 14 14 14 14 14 14 14 14 14 13 13 13 13 13 13 13 12 12 13 13 13 12 12 12 12 12 11 11
15 15 15 15 15 15 15 15 15 14 14 14 14 14 14 14 14 14 13 13 13 13 13 13 12 12 12 12 12 12 12 12 12 12 12 11 11 11
14 14 14 14 14 14 14 14 14 14 14 13 13 13 13 13 13 13 13 13 13 12 12 12 12 12 12 12 12 12 12 12 11 11 11 11 11 11
14 14 14 14 14 14 14 14 13 13 13 13 13 13 13 13 13 13 13 12 12 12 12 12 12 12 12 12 12 11 11 11 11 11 11 11 11 11
14 14 13 13 13 13 13 13 13 13 13 13 13 13 12 12 12 12 12 12 12 12 12 12 11 11 11 11 11 11 11 11 11 11 10 10 10 10
13 13 13 13 12 12 12 12 12 12 12 12 12 12 12 12 12 12 11 11 11 11 11 11 11 11 11 11 11 11 10 10 10 10 10 10 10 10
13 12 12 12 12 12 12 12 12 11 11 11 11 11 11 11 11 11 11 11 11 11 11 11 11 11 10 10 10 10 10 10 10 10 10 9 9 10
12 12 12 12 12 11 11 11 11 11 11 11 11 10 10 10 10 10 10 10 10 10 10 10 10 10 10 10 10 10 10 10 10 10 9 9 9 9
11 11 11 11 11 11 11 10 10 10 10 10 10 10 10 10 10 10 10 10 10 10 10 10 10 10 10 10 10 10 10 10 9 9 9 9 9 9
11 11 11 11 11 10 10 10 10 10 10 10 10 9 9 9 9 9 9 9 9 9 9 9 9 9 9 9 9 9 9 9 9 9 9 9 9 9
11 11 11 10 10 10 10 10 9 9 9 9 9 9 9 9 9 9 9 9 8 8 8 8 9 9 9 9 9 9 9 9 9 9 9 9 9 9
Wind_Speed
4 4 4 4 4 3 3 2 3 3 3 2 1 1 2 4 8 7 7 9 10 9 9 8 8 7 6 6 5 5 5 5 5 6 6 6 6 7
4 4 3 4 3 3 3 3 3 3 3 2 1 1 0 2 6 5 6 9 11 11 10 10 8 8 7 7 6 6 5 5 5 5 5 6 6 6
5 5 4 4 3 3 3 3 3 2 3 3 2 1 1 1 3 5 6 8 9 11 11 10 9 9 9 8 7 7 6 6 5 5 5 6 6 6
5 5 4 4 4 4 3 4 3 3 3 3 2 2 2 2 2 3 4 6 6 9 12 12 11 11 10 9 8 7 7 6 6 6 6 6 6 6
5 5 4 4 4 3 3 4 3 4 3 3 3 3 2 2 1 2 3 1 4 6 10 11 11 11 11 10 9 8 7 6 6 6 5 5 5 5
5 5 4 4 4 4 4 4 4 3 3 3 3 2 2 1 1 1 2 2 2 3 4 6 8 9 10 10 9 8 8 7 6 6 6 5 5 6
5 4 4 4 4 3 3 2 2 2 3 3 3 2 2 1 1 2 2 2 1 1 1 2 4 5 6 8 8 8 9 8 7 7 6 6 6 6
4 4 4 4 4 4 4 3 2 3 3 3 3 2 2 1 2 3 2 2 2 1 1 2 2 3 4 6 8 9 9 9 8 8 7 7 6 6
5 4 5 4 3 3 3 4 4 5 4 4 4 3 2 2 2 2 2 3 4 3 2 3 2 2 2 6 9 10 9 8 8 8 8 8 8 8
6 6 5 4 4 2 2 2 3 2 4 4 3 3 3 2 2 3 4 3 3 2 1 2 2 2 2 4 10 10 10 9 9 9 9 9 8 8
7 6 5 4 4 3 3 3 3 2 2 2 2 3 3 3 2 2 3 2 3 2 1 2 2 2 3 3 7 11 11 11 10 10 10 9 8 7
5 5 5 5 6 5 4 4 4 3 2 2 3 4 4 5 6 4 3 3 2 2 2 2 2 1 3 2 2 5 7 8 9 9 9 9 8 5
4 4 4 6 6 6 5 4 5 4 4 4 5 5 5 4 4 4 3 2 3 3 2 1 2 2 3 2 2 3 3 3 4 5 8 8 8 6
4 3 2 5 5 5 5 5 5 4 4 5 4 4 3 3 2 2 3 4 4 4 3 3 3 3 3 3 3 2 2 2 2 2 2 4 5 5
3 2 3 5 4 4 6 7 5 5 5 5 4 3 3 3 2 2 3 4 5 5 5 4 4 3 3 4 3 2 2 2 2 2 2 2 3 2
3 2 4 5 5 4 4 4 5 5 4 4 3 3 2 2 2 2 2 2 3 4 4 4 4 4 4 4 3 3 2 1 1 2 2 2 2 3
2 1 2 2 3 3 3 3 2 1 2 2 2 2 2 2 2 2 2 3 3 3 3 2 2 2 3 3 3 3 2 2 2 2 2 2 2 2
4 3 4 4 4 3 3 2 2 2 2 1 1 1 2 2 2 2 2 2 3 3 3 2 2 2 2 2 2 3 2 2 2 1 1 2 2 2
4 4 4 4 3 3 2 2 2 2 1 1 2 2 2 2 2 2 2 2 2 2 3 2 2 2 3 4 3 3 3 2 1 1 2 2 3 2
3 3 3 2 2 1 1 1 1 1 1 1 1 1 2 2 2 2 2 2 2 2 3 3 2 2 3 4 3 3 4 3 2 2 2 2 2 1
3 2 2 2 1 1 1 2 2 2 1 1 1 2 2 2 2 2 2 2 3 3 3 3 2 3 3 2 3 3 2 3 3 2 2 2 2 2
4 3 2 2 2 2 2 2 2 2 2 2 2 2 2 2 2 3 2 3 3 3 3 2 2 3 3 4 4 4 3 2 2 4 5 4 3 3
3 3 2 3 2 2 2 2 2 2 1 2 2 1 1 2 2 2 3 3 3 4 3 3 3 3 3 3 3 3 4 2 2 2 3 4 4 4
Wind_Direction
263 265 259 281 281 285 279 261 258 277 277 271 264 207 155 141 159 184 176 191 196 202 207 213 215 219 223 227 234 243 250 252 258 261 263 270 271 268
249 264 265 276 293 290 288 286 264 259 273 288 285 265 209 200 187 194 192 192 202 203 206 210 210 212 215 218 224 233 241 249 256 263 268 270 273 271
256 252 250 256 274 290 291 293 283 276 275 290 299 309 305 240 186 205 210 195 195 202 203 204 206 208 211 216 222 229 237 248 255 260 267 269 270 272
248 260 266 265 255 271 286 286 288 276 252 265 282 286 264 230 208 229 228 208 183 197 200 203 207 211 213 216 220 225 233 242 250 255 261 265 267 271
241 244 250 263 267 265 267 273 280 283 272 259 261 259 264 242 225 255 261 226 203 196 196 201 208 211 213 215 217 219 223 229 238 246 251 259 264 266
244 243 241 242 246 251 254 253 264 281 277 273 261 259 256 254 219 249 263 252 240 210 188 194 201 208 212 211 211 213 216 220 228 238 247 255 260 266
245 244 241 231 229 235 257 259 269 272 276 273 272 274 273 283 275 274 266 259 256 247 191 200 187 195 203 201 204 209 213 219 226 235 243 246 252 259
237 237 238 218 206 202 218 235 240 254 272 276 278 272 278 294 297 287 293 291 272 240 238 253 216 211 192 191 203 207 210 216 223 233 242 245 248 256
227 225 245 234 203 211 214 215 231 246 246 256 267 270 271 270 283 290 288 281 271 257 240 257 235 238 201 201 202 205 210 217 223 231 238 244 248 255
224 220 220 220 233 215 234 239 234 251 256 243 255 267 266 282 268 265 264 264 266 270 256 261 265 265 259 204 204 210 215 219 222 227 235 242 250 257
227 226 217 198 185 196 226 247 249 251 288 263 241 233 233 252 264 277 269 266 277 268 260 255 270 276 260 238 218 216 221 222 224 230 237 242 245 254
227 220 219 201 187 195 217 241 246 253 254 270 264 247 235 235 234 230 244 259 273 275 266 265 279 284 273 244 208 210 222 231 236 239 242 241 238 237
234 227 213 176 184 200 217 234 236 245 254 245 243 235 231 226 216 203 209 237 253 259 256 250 275 267 261 274 255 223 208 222 230 244 245 236 230 225
245 229 193 183 194 212 224 225 230 246 250 247 242 238 233 229 217 208 209 212 220 239 253 237 248 252 257 271 275 247 224 219 214 219 223 219 217 223
254 223 197 202 214 230 226 225 225 235 239 243 244 239 232 222 220 222 223 227 232 246 252 228 235 249 248 254 265 273 270 252 211 212 227 225 212 217
242 224 211 219 233 232 226 226 228 238 244 246 248 248 239 234 238 238 242 239 256 264 251 239 234 240 251 256 259 267 262 254 256 240 239 242 207 191
195 200 212 217 223 218 217 222 226 241 265 284 288 283 269 263 268 261 249 251 251 259 267 271 247 231 246 261 262 259 254 265 259 249 254 257 241 197
176 210 218 219 216 210 210 219 235 237 237 241 268 285 289 285 290 297 288 277 277 270 264 273 293 297 288 295 269 265 262 259 263 242 241 252 256 224
200 225 226 218 216 212 207 205 225 232 231 243 251 257 263 271 275 281 282 281 287 285 275 259 246 253 268 276 280 261 246 248 255 245 252 260 264 250
222 230 233 220 207 203 206 222 229 217 210 239 271 280 281 280 279 283 292 299 299 295 296 291 269 255 257 261 269 272 248 233 234 246 258 263 267 252
229 230 222 210 202 193 202 214 213 204 213 243 242 262 270 278 290 293 298 299 292 292 299 307 296 285 269 254 260 255 251 218 228 243 247 248 259 258
221 220 210 202 194 195 201 205 210 205 207 232 240 239 261 273 282 291 294 298 294 294 305 305 301 306 295 274 264 260 260 240 232 266 273 257 234 237
216 218 213 195 191 188 193 205 218 222 227 254 269 261 263 271 276 280 288 288 296 299 305 307 307 303 292 279 274 266 260 248 241 262 279 270 251 255
Height
1550 1550 1550 1550 1550 1550 1550 1549 1550 1548 1547 1546 1545 1546 1546 1546 1545 1544 1544 1544 1544 1543 1542 1542 1541 1540 1540 1539 1539 1538 1538 1538 1537 1536 1536 1536 1535 1535
1547 1547 1547 1547 1546 1546 1547 1547 1547 1546 1545 1544 1544 1543 1543 1543 1543 1542 1541 1541 1541 1540 1539 1538 1538 1537 1537 1536 1536 1535 1535 1534 1534 1533 1533 1532 1532 1531
1544 1544 1544 1544 1543 1543 1543 1543 1543 1543 1542 1541 1541 1541 1541 1540 1539 1539 1539 1538 1537 1537 1536 1536 1535 1534 1533 1533 1532 1532 1531 1531 1530 1530 1529 1529 1528 1528
1540 1540 1540 1541 1540 1540 1540 1540 1540 1540 1540 1538 1538 1538 1538 1537 1536 1536 1536 1535 1534 1534 1533 1533 1532 1531 1531 1530 1529 1529 1528 1527 1527 1526 1525 1524 1524 1523
1537 1537 1537 1537 1537 1537 1537 1536 1536 1536 1536 1536 1535 1535 1535 1534 1534 1533 1533 1532 1531 1531 1530 1530 1529 1528 1528 1527 1526 1526 1525 1524 1523 1522 1522 1521 1520 1520
1533 1533 1533 1533 1533 1533 1533 1533 1533 1532 1532 1532 1532 1531 1531 1531 1531 1530 1529 1529 1529 1528 1527 1527 1526 1526 1525 1524 1524 1523 1522 1521 1520 1519 1518 1517 1516 1516
1529 1529 1529 1529 1529 1530 1530 1529 1529 1529 1529 1528 1528 1528 1528 1527 1527 1527 1526 1526 1526 1526 1525 1524 1523 1522 1522 1521 1520 1520 1519 1518 1517 1516 1515 1514 1513 1512
1524 1525 1525 1525 1525 1525 1526 1526 1525 1525 1525 1525 1525 1525 1524 1524 1524 1524 1523 1523 1522 1523 1522 1521 1520 1519 1519 1518 1517 1517 1516 1515 1514 1513 1512 1510 1509 1509
1520 1520 1521 1522 1522 1521 1521 1521 1521 1522 1522 1522 1522 1521 1521 1521 1520 1520 1520 1520 1519 1518 1519 1517 1517 1516 1516 1515 1515 1514 1513 1512 1511 1509 1508 1507 1506 1505
1515 1516 1517 1517 1518 1518 1517 1517 1517 1517 1518 1518 1518 1517 1517 1517 1517 1517 1516 1516 1515 1515 1515 1514 1514 1513 1512 1511 1511 1510 1509 1508 1507 1506 1505 1504 1503 1502
1511 1512 1512 1512 1513 1513 1514 1513 1513 1513 1514 1514 1514 1513 1513 1513 1513 1513 1513 1512 1512 1511 1512 1511 1510 1509 1508 1507 1507 1506 1506 1505 1504 1503 1502 1501 1500 1499
1505 1506 1507 1508 1508 1509 1509 1509 1509 1509 1509 1509 1509 1509 1509 1509 1509 1509 1509 1509 1508 1508 1507 1508 1506 1506 1504 1503 1503 1502 1501 1501 1500 1499 1498 1497 1496 1495
1500 1501 1502 1503 1503 1504 1505 1505 1505 1505 1505 1505 1505 1505 1505 1505 1505 1505 1505 1505 1504 1504 1504 1504 1502 1502 1501 1500 1499 1498 1497 1496 1496 1495 1494 1494 1493 1492
1495 1496 1497 1498 1498 1499 1499 1500 1500 1501 1501 1501 1501 1501 1501 1501 1501 1501 1501 1501 1501 1500 1500 1500 1499 1498 1497 1496 1495 1494 1493 1493 1492 1491 1490 1489 1489 1488
1490 1491 1492 1493 1494 1494 1495 1495 1496 1496 1496 1497 1497 1497 1498 1498 1497 1497 1496 1496 1496 1496 1496 1496 1495 1494 1493 1492 1491 1490 1489 1488 1488 1487 1486 1485 1485 1484
1485 1486 1487 1488 1489 1489 1490 1490 1491 1492 1493 1493 1493 1494 1494 1494 1493 1493 1492 1492 1492 1491 1492 1491 1491 1490 1489 1488 1488 1487 1486 1485 1484 1483 1482 1482 1481 1480
1481 1481 1482 1483 1483 1484 1485 1486 1486 1488 1489 1489 1489 1489 1490 1489 1489 1489 1489 1488 1488 1487 1487 1487 1486 1486 1485 1485 1484 1483 1482 1481 1480 1479 1478 1477 1477 1476
1476 1476 1477 1478 1479 1479 1480 1481 1482 1483 1483 1484 1485 1486 1485 1485 1485 1485 1485 1485 1485 1484 1483 1483 1482 1481 1481 1480 1481 1479 1477 1476 1476 1475 1475 1474 1473 1473
1472 1472 1473 1474 1475 1476 1477 1477 1478 1479 1480 1480 1481 1481 1482 1482 1482 1481 1481 1481 1481 1480 1480 1479 1479 1478 1477 1476 1475 1476 1475 1473 1472 1472 1471 1471 1470 1469
1468 1469 1470 1470 1471 1472 1473 1474 1475 1475 1476 1477 1477 1478 1478 1478 1478 1478 1478 1478 1477 1477 1476 1475 1475 1474 1473 1473 1472 1471 1471 1470 1469 1468 1467 1466 1466 1466
1465 1466 1467 1468 1468 1469 1470 1471 1472 1472 1473 1474 1474 1475 1475 1475 1475 1475 1475 1475 1474 1474 1473 1472 1471 1470 1469 1469 1468 1467 1467 1467 1466 1465 1464 1464 1463 1462
1462 1463 1464 1465 1465 1466 1467 1468 1469 1469 1470 1470 1471 1471 1472 1472 1472 1471 1471 1471 1471 1470 1469 1468 1467 1466 1465 1465 1464 1463 1463 1463 1462 1462 1462 1461 1460 1458
1459 1460 1461 1462 1462 1463 1464 1465 1466 1466 1467 1467 1468 1468 1468 1468 1468 1468 1468 1468 1467 1466 1466 1464 1463 1463 1462 1462 1461 1460 1459 1459 1458 1458 1458 1458 1457 1457